AirNav   Pilot Hours Calculator
 
 755 users online  

KEOP Pike County Airport
Waverly, Ohio, USA

GOING TO WAVERLY?


FAA INFORMATION EFFECTIVE 25 MARCH 2021

Location

FAA Identifier: EOP
Lat/Long: 39-10-01.1000N 082-55-42.0000W
39-10.018333N 082-55.700000W
39.1669722,-82.9283333
(estimated)
Elevation: 661.1 ft. / 201.5 m (surveyed)
Variation: 06W (2000)
From city: 3 miles NE of WAVERLY, OH
Time zone: UTC -4 (UTC -5 during Standard Time)
Zip code: 45690

Airport Operations

Airport use: Open to the public
Control tower: no
ARTCC: INDIANAPOLIS CENTER
FSS: DAYTON FLIGHT SERVICE STATION
NOTAMs facility: DAY (NOTAM-D service available)
Attendance: MON-FRI 0800-1600
EXCLDG MAJOR HOLS.
Wind indicator: lighted
Segmented circle: no
Lights: ACTVT REIL RWY 07 & 25; PAPI RWY 07 & 25; MIRL RWY 07/25 - CTAF. PAPI RWY 07 & 25 OPR CONSLY DAWN-DUSK.
Beacon: white-green (lighted land airport)
Operates sunset to sunrise.

Airport Communications

CTAF/UNICOM: 123.0
WX AWOS-A: 118.4
WX AWOS-3 at RZT (17 nm N): 119.225 (740-779-1364)
WX AWOS-3 at I43 (20 nm SE): 118.825 (740-286-1760)
WX AWOS-3 at PMH (20 nm S): 125.175 (740-820-2500)
  • APCH/DEP SVC PRVDD BY INDIANAPOLIS ARTCC ON FREQ 135.575/290.5 (PORTSMOUTH RCAG).

Nearby radio navigation aids

VOR radial/distance  VOR name  Freq  Var
XUBr179/(21.7)YELLOW BUD VOR112.5005W
YRKr009/31.5YORK VORTAC112.8005W

 
NDB name  Hdg/Dist  Freq  Var  ID
WAVERLYat field38506WEOP . --- .--.
COURT HOUSE146/33.841406WCSS -.-. ... ...
WEST UNION062/35.035904WAMT .- -- -
UNIVERSITY268/37.725006WUGS ..- --. ...

Airport Services

Fuel available: 100LL JET-A
FUEL AVBL H24 SELF SER VIA CREDIT CARD.
Parking: tiedowns
Airframe service: MAJOR
Powerplant service: MAJOR
Bottled oxygen: NONE
Bulk oxygen: NONE

Runway Information

Runway 7/25

Dimensions: 4899 x 75 ft. / 1493 x 23 m
Surface: asphalt, in excellent condition
Weight bearing capacity: 
Single wheel: 58.0
Runway edge lights: medium intensity
RUNWAY 7  RUNWAY 25
Latitude: 39-09.829377N39-10.207002N
Longitude: 082-56.157765W082-55.241542W
Elevation: 658.6 ft.660.7 ft.
Traffic pattern: leftleft
Runway heading: 068 magnetic, 062 true248 magnetic, 242 true
Markings: nonprecision, in good conditionnonprecision, in good condition
Visual slope indicator: 4-light PAPI on left (4.00 degrees glide path)4-light PAPI on left (3.00 degrees glide path)
Runway end identifier lights: yesyes
Touchdown point: yes, no lightsyes, no lights
Obstructions: 10 ft. road, 201 ft. from runway, 205 ft. left of centerline
+10 FT ROAD, 0-200 FT FM THR, 205 FT L OF CNTRLN; +8 FT FENCE, 110-200 FT FM THR, 180-190 FT L OF CNTRLN.
55 ft. tree, 670 ft. from runway, 305 ft. left of centerline, 8:1 slope to clear

Airport Ownership and Management from official FAA records

Ownership: Publicly-owned
Owner: PIKE COUNTY COMMISSIONERS
230 WAVERLY PLZ STE 100
WAVERLY, OH 45690-1288
Phone 740-947-4817
Manager: LISA CUTLER
2577 ALMA OMEGA RD
WAVERLY, OH 45690-9316
Phone 740-947-4952
FAX 740-947-2242.

Airport Operational Statistics

Aircraft based on the field: 10
Single engine airplanes: 9
Multi engine airplanes: 1
    
Aircraft operations: avg 40/week *
62% transient general aviation
38% local general aviation
<1% military
* for 12-month period ending 09 July 2020

Additional Remarks

BIRDS & OTR WILDLIFE ON & INVOF ARPT.
FOR CD CTC INDIANAPOLIS ARTCC AT 317-247-2411.

Instrument Procedures

NOTE: All procedures below are presented as PDF files. If you need a reader for these files, you should download the free Adobe Reader.

NOT FOR NAVIGATION. Please procure official charts for flight.
FAA instrument procedures published for use from 25 March 2021 at 0901Z to 22 April 2021 at 0900z.

 
IAPs - Instrument Approach Procedures
RNAV (GPS) RWY 07   download (251KB)
RNAV (GPS) RWY 25   download (245KB)
NDB RWY 25   download (209KB)
NOTE: Special Take-Off Minimums/Departure Procedures apply   download (230KB)

Other nearby airports with instrument procedures:

KRZT - Ross County Airport (17 nm N)
I43 - James A Rhodes Airport (20 nm SE)
KPMH - Greater Portsmouth Regional Airport (20 nm S)
KCYO - Pickaway County Memorial Airport (21 nm N)
KHOC - Highland County Airport (28 nm W)
 
Loc | Ops | Rwys | IFR | FBO | Links
Com | Nav | Svcs | Stats | Notes
Area around KEOP (Pike County Airport)
 
Road maps at: MapQuest Bing Google
 
Aerial photo
WARNING: Photo may not be current or correct
Aerial photo of KEOP (Pike County Airport)
Do you have a better or more recent aerial photo of Pike County Airport that you would like to share? If so, please send us your photo.

 
Sectional chart

 
Airport diagram
CAUTION: Diagram may not be current
Diagram of KEOP (Pike County Airport)
 
Airport distance calculator
Flying to Pike County Airport? Find the distance to fly.

From to KEOP

Sunrise and sunset
Times for 21-Apr-2021
 Local
(UTC-4)
 Zulu
(UTC)
Morning civil twilight06:1910:19
Sunrise06:4710:47
Sunset20:1400:14
Evening civil twilight20:4200:42

Current date and time
Zulu (UTC)  21-Apr-2021 04:42:26
Local (UTC-4)  21-Apr-2021 00:42:26
 
METAR
KRZT 
17nm N 
210415Z AUTO 36015G21KT 10SM SCT016 BKN022 OVC030 03/00 A2991 RMK AO2 PWINO
KI43 
20nm SE 
210415Z AUTO 36008G15KT 10SM CLR 10/03 A2984 RMK AO2
KPMH 
20nm S 
210359Z AUTO 32012G18KT 10SM SCT120 08/01 A2986 RMK AO2
KUNI 
32nm E 
210415Z AUTO 34006KT 10SM CLR 07/01 A2984 RMK AO2 T00670012
KI23 
33nm NW 
210415Z AUTO 34013G17KT 2 1/2SM BKN006 OVC011 00/M01 A2993 RMK AO1
TAF
KLCK 
39nm N 
201739Z 2018/2118 VRB05KT P6SM SCT035 BKN250 FM210200 02010KT P6SM VCSH BKN025 FM210400 36011G19KT 4SM -RA BR OVC015 FM210600 35012G20KT 3SM -SN BR OVC008 FM211200 32011KT P6SM BKN008 FM211400 32009KT P6SM BKN015 FM211700 31010KT P6SM FEW018 BKN250
KILN 
44nm W 
201739Z 2018/2118 23006KT P6SM SCT035 OVC250 FM202300 34008KT P6SM VCSH BKN035 FM210300 01011G19KT 6SM -RA BR BKN015 FM210500 35013G21KT 3SM -RASN BR OVC008 TEMPO 2105/2109 2SM -SN BR OVC005 FM211000 32010KT P6SM OVC009 FM211200 31011KT P6SM BKN018 FM211500 31013KT P6SM FEW018 BKN250
NOTAMs
Click for the latest NOTAMs
NOTAMs are issued by the DoD/FAA and will open in a separate window not controlled by AirNav.

 

 
 

FBO, Fuel Providers, and Aircraft Ground Support

  
 Business Name 
 
 Contact 
 
 Services / Description 
 
Fuel Prices
 
Comments
  
Pike County Airport 740-947-4952
no information available

If you are affiliated with Pike County Airport and would like to show here your services, contact info, web link, logo, and more, click here
100LL Jet A
AS $4.75 $4.25 
 Updated 07-Apr-2021
 
   1 read write
AS=Assisted/Self Service
Update Fuel Prices
 

Would you like to see your business listed on this page?

 If your business provides an interesting product or service to pilots, flight crews, aircraft, or users of the Pike County Airport, you should consider listing it here.  To start the listing process, click on the button below
 
Add a business
 

Other Pages about Pike County Airport

Update a link
 
Copyright © AirNav, LLC. All rights reserved. Privacy Policy  Contact